TimeCST,TemperatureF,Dew PointF,Humidity,Sea Level PressureIn,VisibilityMPH,Wind Direction,Wind SpeedMPH,Gust SpeedMPH,PrecipitationIn,Events,Conditions,WindDirDegrees,DateUTC
12:14 AM,36.5,31.6,83,29.83,10.0,WNW,3.5,-,N/A,,Mostly Cloudy,300,2013-11-14 06:14:00
12:33 AM,35.8,31.6,85,29.83,10.0,WNW,3.5,-,N/A,,Scattered Clouds,300,2013-11-14 06:33:00
12:54 AM,35.4,31.5,85,29.82,10.0,Calm,Calm,-,N/A,,Scattered Clouds,0,2013-11-14 06:54:00
1:14 AM,35.2,31.5,86,29.82,10.0,Calm,Calm,-,N/A,,Clear,0,2013-11-14 07:14:00
1:33 AM,35.6,31.5,85,29.81,10.0,SSW,3.5,-,N/A,,Clear,210,2013-11-14 07:33:00
1:54 AM,34.9,31.5,87,29.82,10.0,SSW,3.5,-,N/A,,Mostly Cloudy,210,2013-11-14 07:54:00
2:14 AM,35.6,31.3,84,29.82,10.0,Calm,Calm,-,N/A,,Overcast,0,2013-11-14 08:14:00
2:33 AM,35.4,31.5,85,29.82,10.0,Calm,Calm,-,N/A,,Scattered Clouds,0,2013-11-14 08:33:00
2:54 AM,36.1,31.5,83,29.82,10.0,Calm,Calm,-,N/A,,Scattered Clouds,0,2013-11-14 08:54:00
3:14 AM,35.1,31.1,85,29.82,10.0,West,3.5,-,N/A,,Scattered Clouds,260,2013-11-14 09:14:00
3:33 AM,35.8,31.6,85,29.81,10.0,Calm,Calm,-,N/A,,Clear,0,2013-11-14 09:33:00
3:54 AM,36.5,31.8,83,29.81,10.0,Calm,Calm,-,N/A,,Clear,0,2013-11-14 09:54:00
4:14 AM,33.3,30.6,90,29.81,10.0,Calm,Calm,-,N/A,,Clear,0,2013-11-14 10:14:00
4:33 AM,34.0,30.9,89,29.81,10.0,Calm,Calm,-,N/A,,Clear,0,2013-11-14 10:33:00
4:54 AM,33.6,30.9,90,29.81,10.0,WNW,3.5,-,N/A,,Clear,300,2013-11-14 10:54:00
5:14 AM,33.4,30.7,90,29.80,10.0,Calm,Calm,-,N/A,,Clear,0,2013-11-14 11:14:00
5:33 AM,32.9,30.4,90,29.80,10.0,West,3.5,-,N/A,,Clear,260,2013-11-14 11:33:00
5:54 AM,32.9,30.2,90,29.80,10.0,NW,3.5,-,N/A,,Clear,310,2013-11-14 11:54:00
6:14 AM,33.1,30.2,89,29.80,10.0,Calm,Calm,-,N/A,,Clear,0,2013-11-14 12:14:00
6:33 AM,33.1,30.6,90,29.79,10.0,Calm,Calm,-,N/A,,Clear,0,2013-11-14 12:33:00
6:54 AM,33.3,30.7,90,29.80,10.0,Calm,Calm,-,N/A,,Scattered Clouds,0,2013-11-14 12:54:00
7:14 AM,33.1,30.6,90,29.80,10.0,Calm,Calm,-,N/A,,Clear,0,2013-11-14 13:14:00
7:33 AM,32.0,29.8,92,29.80,10.0,Calm,Calm,-,N/A,,Clear,0,2013-11-14 13:33:00
7:54 AM,32.9,30.9,92,29.79,10.0,South,3.5,-,N/A,,Mostly Cloudy,170,2013-11-14 13:54:00
8:14 AM,33.4,31.5,92,29.78,10.0,South,3.5,-,N/A,,Mostly Cloudy,180,2013-11-14 14:14:00
8:33 AM,35.6,32.0,87,29.80,10.0,SW,3.5,-,N/A,,Scattered Clouds,220,2013-11-14 14:33:00
8:54 AM,37.2,32.5,83,29.80,10.0,SW,6.9,-,N/A,,Scattered Clouds,230,2013-11-14 14:54:00
9:13 AM,37.6,32.7,83,29.79,10.0,SW,4.6,-,N/A,,Clear,220,2013-11-14 15:13:00
9:33 AM,38.8,33.1,80,29.80,10.0,SW,6.9,-,N/A,,Clear,220,2013-11-14 15:33:00
9:54 AM,40.1,33.3,77,29.80,10.0,SW,4.6,-,N/A,,Clear,230,2013-11-14 15:54:00
10:13 AM,41.2,33.8,75,29.79,10.0,SW,4.6,-,N/A,,Clear,230,2013-11-14 16:13:00
10:33 AM,41.9,33.8,73,29.79,10.0,SW,4.6,-,N/A,,Clear,220,2013-11-14 16:33:00
10:54 AM,43.5,34.3,70,29.79,10.0,WSW,8.1,-,N/A,,Clear,240,2013-11-14 16:54:00
11:13 AM,46.0,34.7,65,29.78,10.0,West,15.0,-,N/A,,Clear,260,2013-11-14 17:13:00
11:33 AM,46.0,34.2,63,29.77,10.0,West,12.7,-,N/A,,Clear,270,2013-11-14 17:33:00
11:54 AM,47.5,34.7,61,29.76,10.0,West,9.2,19.6,N/A,,Clear,280,2013-11-14 17:54:00
12:13 PM,48.9,34.9,58,29.76,10.0,West,13.8,20.7,N/A,,Clear,260,2013-11-14 18:13:00
12:33 PM,49.5,34.9,57,29.76,10.0,West,17.3,23.0,N/A,,Clear,260,2013-11-14 18:33:00
12:54 PM,48.7,34.7,58,29.76,10.0,West,16.1,26.5,N/A,,Clear,260,2013-11-14 18:54:00
1:13 PM,48.6,34.9,59,29.75,10.0,West,15.0,18.4,N/A,,Clear,270,2013-11-14 19:13:00
1:33 PM,48.0,34.7,60,29.75,10.0,WNW,12.7,19.6,N/A,,Clear,290,2013-11-14 19:33:00
1:54 PM,47.7,34.3,60,29.75,10.0,West,11.5,-,N/A,,Clear,280,2013-11-14 19:54:00
2:13 PM,47.7,34.3,60,29.74,10.0,West,11.5,17.3,N/A,,Clear,280,2013-11-14 20:13:00
2:34 PM,47.7,34.2,60,29.74,10.0,West,10.4,17.3,N/A,,Clear,280,2013-11-14 20:34:00
2:54 PM,48.2,34.0,58,29.74,10.0,WNW,10.4,-,N/A,,Clear,290,2013-11-14 20:54:00
3:13 PM,47.8,34.0,59,29.74,10.0,WNW,9.2,-,N/A,,Clear,290,2013-11-14 21:13:00
3:34 PM,47.7,33.8,59,29.75,10.0,WNW,11.5,-,N/A,,Clear,300,2013-11-14 21:34:00
3:54 PM,46.6,33.3,60,29.76,10.0,WNW,11.5,-,N/A,,Clear,300,2013-11-14 21:54:00
4:13 PM,46.0,33.3,61,29.76,10.0,West,6.9,-,N/A,,Clear,280,2013-11-14 22:13:00
4:34 PM,43.9,32.9,65,29.76,10.0,West,6.9,-,N/A,,Clear,280,2013-11-14 22:34:00
4:53 PM,41.5,32.0,69,29.77,10.0,West,5.8,-,N/A,,Clear,270,2013-11-14 22:53:00
5:14 PM,39.4,31.8,74,29.78,10.0,West,5.8,-,N/A,,Clear,270,2013-11-14 23:14:00
5:34 PM,37.2,31.1,79,29.78,10.0,West,5.8,-,N/A,,Clear,280,2013-11-14 23:34:00
5:53 PM,35.6,30.2,81,29.78,10.0,West,6.9,-,N/A,,Clear,280,2013-11-14 23:53:00
6:14 PM,35.6,30.6,82,29.79,10.0,West,8.1,-,N/A,,Clear,270,2013-11-15 00:14:00
6:34 PM,34.7,30.6,85,29.80,10.0,West,6.9,-,N/A,,Clear,280,2013-11-15 00:34:00
6:53 PM,34.7,30.9,86,29.80,10.0,West,5.8,-,N/A,,Clear,280,2013-11-15 00:53:00
7:14 PM,33.8,30.2,87,29.80,10.0,West,3.5,-,N/A,,Clear,280,2013-11-15 01:14:00
7:34 PM,33.8,30.4,87,29.80,10.0,Calm,Calm,-,N/A,,Clear,0,2013-11-15 01:34:00
7:53 PM,32.0,29.5,90,29.80,10.0,SW,3.5,-,N/A,,Clear,230,2013-11-15 01:53:00
8:14 PM,32.0,29.7,91,29.80,10.0,SW,3.5,-,N/A,,Clear,220,2013-11-15 02:14:00
8:34 PM,29.7,28.4,95,29.80,10.0,Calm,Calm,-,N/A,,Clear,0,2013-11-15 02:34:00
8:53 PM,30.2,28.8,94,29.80,10.0,Calm,Calm,-,N/A,,Clear,0,2013-11-15 02:53:00
9:14 PM,30.4,28.9,94,29.80,10.0,Calm,Calm,-,N/A,,Clear,0,2013-11-15 03:14:00
9:33 PM,29.8,28.8,96,29.80,10.0,Calm,Calm,-,N/A,,Mostly Cloudy,0,2013-11-15 03:33:00
9:54 PM,28.9,27.5,94,29.80,10.0,South,3.5,-,N/A,,Overcast,190,2013-11-15 03:54:00
10:14 PM,29.5,28.2,95,29.78,10.0,Calm,Calm,-,N/A,,Overcast,0,2013-11-15 04:14:00
10:33 PM,31.1,29.5,94,29.78,10.0,Calm,Calm,-,N/A,,Overcast,0,2013-11-15 04:33:00
10:54 PM,31.3,30.0,95,29.78,7.0,Calm,Calm,-,N/A,,Mostly Cloudy,0,2013-11-15 04:54:00
11:14 PM,30.9,30.0,96,29.77,7.0,Calm,Calm,-,N/A,,Clear,0,2013-11-15 05:14:00
11:33 PM,31.1,30.4,97,29.77,7.0,Calm,Calm,-,N/A,,Clear,0,2013-11-15 05:33:00
11:54 PM,31.1,29.8,95,29.78,10.0,South,3.5,-,N/A,,Clear,190,2013-11-15 05:54:00